This is the latest recevied weather packets stored in our database for station/object EA1IDU-11. If no packets are shown the sender has not sent any weather packets the latest 1 day(s).
| Time | Temp. | Humidity | Pressure | Rain* | Wind** | Luminosity | Snow |
|---|---|---|---|---|---|---|---|
| 1777846374 | 12.78° C | 54% | 1021.3 hPa | - | - | - | - |
| 1777845474 | 12.78° C | 53% | 1021.3 hPa | - | - | - | - |
| 1777844574 | 12.78° C | 53% | 1021.2 hPa | - | - | - | - |
| 1777843674 | 12.78° C | 53% | 1021.1 hPa | - | - | - | - |
| 1777842774 | 12.78° C | 52% | 1021.3 hPa | - | - | - | - |
| 1777841874 | 13.33° C | 52% | 1021.3 hPa | - | - | - | - |
| 1777840974 | 13.33° C | 52% | 1020.9 hPa | - | - | - | - |
| 1777840074 | 13.89° C | 52% | 1020.8 hPa | - | - | - | - |
| 1777839174 | 14.44° C | 52% | 1020.6 hPa | - | - | - | - |
| 1777838274 | 15° C | 52% | 1020.4 hPa | - | - | - | - |
| 1777837373 | 15.56° C | 51% | 1020.3 hPa | - | - | - | - |
| 1777836473 | 16.11° C | 51% | 1020.1 hPa | - | - | - | - |
| 1777835573 | 16.67° C | 49% | 1019.8 hPa | - | - | - | - |
| 1777834673 | 18.89° C | 49% | 1019.8 hPa | - | - | - | - |
| 1777833773 | 17.22° C | 49% | 1019.9 hPa | - | - | - | - |
| 1777832873 | 17.22° C | 49% | 1019.8 hPa | - | - | - | - |
| 1777831973 | 17.78° C | 48% | 1019.6 hPa | - | - | - | - |
| 1777831073 | 19.44° C | 47% | 1019.6 hPa | - | - | - | - |
| 1777830173 | 19.44° C | 47% | 1019.6 hPa | - | - | - | - |
| 1777829273 | 19.44° C | 47% | 1019.7 hPa | - | - | - | - |
* Rain since midnight (hover to see other rain measurements)
** Current wind speed in m/s (hover to see current wind gust speed)